STARLINK-4526 (53438 NORAD) Tracking and Keplerian Element Data

This shows tracking and keplerian element data for the satellite.

Feedback or suggestion? Click here.




ElementValue
Catalog53438
NameSTARLINK-4526
Epoch Orbit799
Epoch Day270.25001157
Epoch Year2022
RAAN10.207
Inclination53.2172
Eccentricity0.000257
Argument of Perigee19.9042
Mean Anonmoly166.0745
Mean Motion15.73173798
Decay Rate0.00021141
L11 53438U 22097BC 22270.25001157 .00021141 00000+0 15483-3 0 9999
L22 53438 53.2172 10.2070 0002570 19.9042 166.0745 15.73173798 7999

Live tracking and technical data element details for STARLINK-4526 (NORAD 53438). STARLINK-4526 can be tracked NOW for your location showing map with azimuth and elevation plus other details from your city location.

Track the satellite on the map from your city or location and see movement details for azimuth, elevation, latitude, longitude, range, height, and movement on the map or in text.







IsCatalogInMostPopularTable: catalog: 53438, numindb: 4
Update: records affected: 1



GetName: 53438 STARLINK-4526

Hit Count: updated at: Wed, 28 Sep 2022 23:16:34 GMT